N1HUI Weather Reports


time (UTC)temp
C
wind
direction
speed
KPH
gust
KPH
rain 1hr
cm
rain 24hr
cm
rain mn
cm
humidity
%
barometer
mb
20260506200020 13 182 0.0 4.8 0.00 0.00 0.00 85 1007.1
20260506194619 13 184 1.6 0.0 0.00 0.00 0.00 97 1002.6
20260506194519 13 182 0.0 4.8 0.00 0.00 0.00 85 1007.5
20260506193101 13 185 4.8 0.0 0.00 0.00 0.00 97 1002.3
20260506193017 13 182 0.0 11.3 0.00 0.00 0.00 85 1007.8
20260506191600 13 189 4.8 0.0 0.00 0.00 0.00 97 1002.8
20260506191517 13 180 1.6 11.3 0.00 0.00 0.00 84 1007.6
20260506190058 13 153 8.0 0.0 0.00 0.00 0.00 97 1002.9
20260506190015 13 192 0.0 9.7 0.00 0.00 0.00 85 1008.1
20260506184607 13 172 8.0 0.0 0.00 0.00 0.00 97 1003.1
20260506184513 13 181 1.6 12.9 0.00 0.00 0.00 84 1008.1
20260506183102 13 169 8.0 0.0 0.00 0.00 0.00 96 1003.3
20260506183013 13 185 0.0 6.4 0.00 0.00 0.00 84 1008.1
20260506181554 13 139 8.0 0.0 0.00 0.00 0.00 96 1003.3
20260506181512 13 190 0.0 9.7 0.00 0.00 0.00 84 1008.3
20260506180054 13 149 8.0 0.0 0.00 0.00 0.00 94 1003.6
20260506180011 13 175 1.6 8.0 0.00 0.00 0.00 83 1008.4
20260506174551 13 115 4.8 0.0 0.00 0.00 0.00 93 1004.0
20260506174509 14 186 0.0 9.7 0.00 0.00 0.00 83 1008.8
20260506173053 13 145 3.2 0.0 0.00 0.00 0.00 93 1004.3
20260506173006 14 178 0.0 11.3 0.00 0.00 0.00 83 1009.2
20260506171553 13 140 3.2 0.0 0.00 0.00 0.00 92 1004.4
20260506171510 15 193 0.0 12.9 0.00 0.00 0.00 82 1009.2
20260506170107 14 192 4.8 0.0 0.00 0.00 0.00 92 1004.6
20260506170019 14 212 4.8 0.0 0.00 0.00 0.00 91 1004.6
20260506170005 15 162 0.0 9.7 0.00 0.00 0.00 81 1009.5
20260506164549 14 188 6.4 0.0 0.00 0.00 0.00 90 1004.8
20260506164505 15 189 1.6 8.0 0.00 0.00 0.00 80 1009.5
20260506163100 15 227 4.8 0.0 0.00 0.00 0.00 89 1004.8
20260506163007 15 142 1.6 12.9 0.00 0.00 0.00 80 1009.8
20260506161548 15 181 6.4 0.0 0.00 0.00 0.00 89 1004.9
20260506161504 16 118 3.2 11.3 0.00 0.00 0.00 80 1009.7
20260506160047 15 199 9.7 0.0 0.00 0.00 0.00 89 1005.3
20260506160007 16 150 3.2 14.5 0.00 0.00 0.00 80 1010.0
20260506154546 15 162 6.4 0.0 0.00 0.00 0.00 89 1005.3
20260506154503 16 182 3.2 19.3 0.00 0.00 0.00 80 1010.2
20260506153048 15 214 3.2 0.0 0.00 0.00 0.00 89 1004.9
20260506153004 16 181 0.0 8.0 0.00 0.00 0.00 79 1010.3
20260506151547 15 135 4.8 0.0 0.00 0.00 0.00 89 1004.9
20260506151503 16 170 1.6 9.7 0.00 0.00 0.00 78 1010.0
20260506150045 15 131 6.4 0.0 0.00 0.00 0.00 89 1005.2
20260506150002 16 104 0.0 11.3 0.00 0.00 0.00 78 1010.1
20260506144558 15 192 8.0 0.0 0.00 0.00 0.00 88 1005.4
20260506144501 17 171 0.0 6.4 0.00 0.00 0.00 78 1010.3
20260506143108 17 169 3.2 17.7 0.00 0.00 0.00 78 1010.4
20260506143045 15 168 8.0 0.0 0.00 0.00 0.00 87 1005.4
20260506141600 17 198 3.2 14.5 0.00 0.00 0.00 78 1010.3
20260506141543 16 202 9.7 0.0 0.00 0.00 0.00 87 1005.7
20260506140101 16 155 3.2 12.9 0.00 0.00 0.00 79 1010.6
20260506140045 15 225 8.0 0.0 0.00 0.00 0.00 88 1005.4
20260506134558 16 190 1.6 8.0 0.00 0.00 0.00 80 1010.3
20260506134540 15 181 6.4 0.0 0.00 0.00 0.00 89 1005.4
20260506133058 16 179 0.0 9.7 0.00 0.00 0.00 80 1010.3
20260506133040 15 194 4.8 0.0 0.00 0.00 0.00 90 1005.2
20260506131600 16 188 0.0 12.9 0.00 0.00 0.00 79 1010.1
20260506131538 15 180 6.4 0.0 0.00 0.00 0.00 91 1005.4
20260506130059 16 165 3.2 14.5 0.00 0.00 0.00 78 1010.2
20260506130038 15 235 8.0 0.0 0.00 0.00 0.00 90 1005.6
20260506124555 17 146 3.2 9.7 0.00 0.00 0.00 79 1010.5
20260506124535 15 192 8.0 0.0 0.00 0.00 0.00 90 1005.8
20260506123054 16 169 0.0 11.3 0.00 0.00 0.00 81 1010.8
20260506123033 15 194 8.0 0.0 0.00 0.00 0.00 91 1005.7
20260506121552 16 175 1.6 11.3 0.00 0.00 0.00 82 1010.7
20260506121527 14 203 6.4 0.0 0.00 0.00 0.00 92 1005.4
20260506120056 15 171 1.6 11.3 0.00 0.00 0.00 83 1010.6
20260506120037 14 221 6.4 0.0 0.00 0.00 0.00 93 1005.3
20260506114555 14 138 1.6 9.7 0.00 0.00 0.00 84 1010.6
20260506114522 14 180 6.4 0.0 0.00 0.00 0.00 94 1005.4
20260506113049 13 126 0.0 6.4 0.00 0.00 0.00 84 1010.6
20260506113028 13 246 4.8 0.0 0.00 0.00 0.00 94 1005.4
20260506111550 13 166 0.0 6.4 0.00 0.00 0.00 84 1010.6
20260506111519 13 261 3.2 0.0 0.00 0.00 0.00 95 1005.4
20260506110055 13 150 1.6 11.3 0.00 0.00 0.00 84 1010.6
20260506110017 13 242 1.6 0.0 0.00 0.00 0.00 95 1005.3
20260506104548 13 166 0.0 6.4 0.00 0.00 0.00 84 1010.6
20260506104515 13 254 0.0 0.0 0.00 0.00 0.00 96 1005.4
20260506103041 12 175 0.0 4.8 0.00 0.00 0.00 84 1010.6
20260506103015 12 202 3.2 0.0 0.00 0.00 0.00 96 1005.4
20260506101543 12 175 0.0 8.0 0.00 0.00 0.00 84 1010.6
20260506101516 12 251 1.6 0.0 0.00 0.00 0.00 95 1005.3
20260506100044 12 171 0.0 8.0 0.00 0.00 0.00 84 1010.5
20260506100015 12 187 0.0 0.0 0.00 0.00 0.00 95 1005.2
20260506094554 12 175 0.0 4.8 0.00 0.00 0.00 84 1010.4
20260506094516 12 234 1.6 0.0 0.00 0.00 0.00 95 1005.1
20260506093043 12 175 0.0 4.8 0.00 0.00 0.00 84 1010.4
20260506093014 12 178 0.0 0.0 0.00 0.00 0.00 95 1005.2
20260506091538 12 175 0.0 9.7 0.00 0.00 0.00 84 1010.5
20260506091517 12 175 3.2 0.0 0.00 0.00 0.00 95 1005.3
20260506090035 12 190 0.0 1.6 0.00 0.00 0.00 84 1010.6
20260506090019 12 221 3.2 0.0 0.00 0.00 0.00 94 1005.4
20260506084535 12 190 0.0 6.4 0.00 0.00 0.00 83 1010.6
20260506084513 12 215 4.8 0.0 0.00 0.00 0.00 95 1005.6
20260506083035 12 175 0.0 8.0 0.00 0.00 0.00 83 1010.8
20260506083014 12 202 0.0 0.0 0.00 0.00 0.00 94 1005.4
20260506081535 13 174 0.0 8.0 0.00 0.00 0.00 83 1010.7
20260506081513 12 241 1.6 0.0 0.00 0.00 0.00 94 1005.5
20260506073030 13 181 1.6 11.3 0.00 0.00 0.00 83 1010.8
20260506073011 13 172 1.6 0.0 0.00 0.00 0.00 93 1005.7
20260506071532 13 186 1.6 11.3 0.00 0.00 0.00 82 1010.8
20260506071511 13 227 4.8 0.0 0.00 0.00 0.00 93 1005.7
20260506061532 13 184 0.0 6.4 0.00 0.00 0.00 82 1010.9
20260506061508 13 220 1.6 0.0 0.00 0.00 0.00 91 1005.8
20260506044524 14 169 0.0 12.9 0.00 0.00 0.00 80 1011.3
20260506044508 14 215 9.7 0.0 0.00 0.00 0.00 88 1006.2
20260506043016 14 169 1.6 8.0 0.00 0.00 0.00 80 1011.3
20260506043008 14 230 12.9 0.0 0.00 0.00 0.00 88 1006.2
20260506041518 14 172 0.0 4.8 0.00 0.00 0.00 80 1011.4
20260506041507 14 240 11.3 0.0 0.00 0.00 0.00 88 1006.2
20260506040037 14 172 0.0 8.0 0.00 0.00 0.00 80 1011.3
20260506040007 14 238 8.0 0.0 0.00 0.00 0.00 89 1006.3
20260506034515 14 180 0.0 14.5 0.00 0.00 0.00 80 1011.3
20260506034505 14 242 8.0 0.0 0.00 0.00 0.00 89 1006.2
20260506033015 15 185 0.0 6.4 0.00 0.00 0.00 79 1011.3
20260506033010 14 225 9.7 0.0 0.00 0.00 0.00 88 1006.0
20260506031530 15 155 4.8 14.5 0.00 0.00 0.00 79 1011.2
20260506031505 14 232 9.7 0.0 0.00 0.00 0.00 87 1006.3
20260506030015 14 173 1.6 9.7 0.00 0.00 0.00 79 1011.3
20260506030005 14 274 9.7 0.0 0.00 0.00 0.00 86 1006.0
20260506024519 15 192 0.0 6.4 0.00 0.00 0.00 78 1011.2
20260506024514 15 236 11.3 0.0 0.00 0.00 0.00 84 1005.9
20260506023013 15 182 0.0 19.3 0.00 0.00 0.00 77 1011.2
20260506023004 15 226 11.3 0.0 0.00 0.00 0.00 83 1005.9
20260506021513 15 174 0.0 12.9 0.00 0.00 0.00 77 1011.2
20260506021504 15 201 11.3 0.0 0.00 0.00 0.00 81 1005.7
20260506020013 15 215 0.0 8.0 0.00 0.00 0.00 76 1010.9
20260506020006 15 203 14.5 0.0 0.00 0.00 0.00 82 1005.6
20260506014514 15 210 0.0 3.2 0.00 0.00 0.00 75 1010.9
20260506014502 15 230 9.7 0.0 0.00 0.00 0.00 83 1005.4
20260506013012 15 262 0.0 25.7 0.00 0.00 0.00 75 1010.6
20260506013003 15 224 8.0 0.0 0.00 0.00 0.00 83 1005.4
20260506011512 16 204 4.8 27.4 0.00 0.00 0.00 74 1010.6
20260506011504 15 232 9.7 0.0 0.00 0.00 0.00 83 1005.3
20260506010013 15 146 6.4 25.7 0.00 0.00 0.00 74 1010.2
20260506010002 15 222 8.0 0.0 0.00 0.00 0.00 82 1004.9
20260506004521 15 162 6.4 25.7 0.00 0.00 0.00 75 1010.1
20260506004505 15 256 6.4 0.0 0.00 0.00 0.00 82 1004.8
20260506003014 15 198 3.2 14.5 0.00 0.00 0.00 75 1009.9
20260506003002 15 273 11.3 0.0 0.00 0.00 0.00 81 1004.6
20260506001511 15 212 0.0 6.4 0.00 0.00 0.00 75 1009.8
20260506001502 15 255 11.3 0.0 0.00 0.00 0.00 79 1004.2
20260506000011 15 226 0.0 8.0 0.00 0.00 0.00 74 1009.4
20260506000001 16 273 14.5 0.0 0.00 0.00 0.00 78 1003.9
20260505234511 16 218 0.0 4.8 0.00 0.00 0.00 72 1009.2
20260505234502 15 184 4.8 0.0 0.00 0.00 0.00 80 1003.8
20260505233010 16 219 0.0 6.4 0.00 0.00 0.00 71 1009.1
20260505233002 15 176 9.7 0.0 0.00 0.00 0.00 79 1003.8
20260505231510 17 303 0.0 8.0 0.00 0.00 0.00 69 1008.9
20260505231502 16 174 3.2 0.0 0.00 0.00 0.00 77 1003.7
20260505230014 17 186 0.0 17.7 0.00 0.00 0.00 68 1008.8
20260505230002 16 204 8.0 0.0 0.00 0.00 0.00 76 1004.0
20260505224600 16 274 9.7 0.0 0.00 0.00 0.00 75 1003.9
20260505224510 17 181 3.2 20.9 0.00 0.00 0.00 68 1009.2
20260505223107 17 229 14.5 0.0 0.00 0.00 0.00 72 1003.8
20260505223011 17 170 8.0 27.4 0.00 0.00 0.00 69 1009.0
20260505221601 17 231 11.3 0.0 0.00 0.00 0.00 74 1003.8
20260505221510 17 126 1.6 6.4 0.00 0.00 0.00 69 1009.0
20260505220059 17 174 8.0 0.0 0.00 0.00 0.00 72 1003.8
20260505220008 17 185 3.2 17.7 0.00 0.00 0.00 69 1009.0
20260505214621 17 205 4.8 0.0 0.00 0.00 0.00 73 1003.7
20260505214508 18 180 3.2 11.3 0.00 0.00 0.00 69 1008.8
20260505213104 17 171 8.0 0.0 0.00 0.00 0.00 73 1003.8
20260505213007 18 152 1.6 14.5 0.00 0.00 0.00 69 1008.6
20260505211607 17 182 11.3 0.0 0.00 0.00 0.00 74 1003.7
20260505211507 18 184 3.2 20.9 0.00 0.00 0.00 69 1008.8
20260505210058 17 168 8.0 0.0 0.00 0.00 0.00 75 1003.5
20260505210006 17 172 3.2 8.0 0.00 0.00 0.00 70 1008.8
20260505204558 17 175 8.0 0.0 0.00 0.00 0.00 75 1003.7
20260505204506 17 129 1.6 12.9 0.00 0.00 0.00 70 1008.6
20260505203057 17 165 8.0 0.0 0.00 0.00 0.00 76 1003.7
20260505203005 17 152 1.6 11.3 0.00 0.00 0.00 70 1008.7
20260505201557 17 129 6.4 0.0 0.00 0.00 0.00 75 1003.9
20260505201526 17 154 8.0 0.0 0.00 0.00 0.00 75 1003.9
20260505201506 18 167 1.6 17.7 0.00 0.00 0.00 70 1008.8